sat.trackr.live / text

‹ back to catalog

SMDC ONE 2.4

NORAD 39469 · 2013-072H

PAYLOAD ACTIVE UNKNOWN

§ Identity

Operator
Country
US
Launch date
2013-12-06
Launch site
AFWTR
Launch vehicle
Mass (kg)
RCS (m²)

External: N2YO · Heavens-Above · Gunter

§ Orbital elements

Epoch: 2026-09-13T02:49:29.273088Z

Period
94.70 min
Inclination
120.4897°
Eccentricity
0.0144186
Mean motion
15.20668320 rev/d
Perigee alt
404.6 km
Apogee alt
603.1 km
Semi-major
6,882.0 km
B*
5.1725e-4
RAAN
332.1599°
Arg perigee
110.3515°
Mean anomaly
251.3113°
Rev number
13,119

§ Raw data

SMDC ONE 2.41 39469U 13072H   26256.11769992  .00014819  00000+0  51725-3 0  99942 39469 120.4897 332.1599 0144186 110.3515 251.3113 15.20668320131190

JSON: /api/v1/satellites/39469 · /tle

For live sub-satellite position, see the globe view (requires WebGL).

§ Visibility from observer

Set your observer location to see the next 7 days of passes ≥ 10°. The values pass through the URL so the page stays shareable.

No JS? Fill the form by hand. The geolocation button needs JavaScript.